Location: Luz Observatory
(34.5000°N, 117.2833°W)
Time: 23:59:14
(UTC-08:00)

Cosmos 1484 Rocket - Visible Passes

Search period start: 19 January 2017 00:00
Search period end: 29 January 2017 00:00
Orbit: 509 x 562 km, 97.3° (Epoch: 19 January)

Date Brightness Start Highest point End Pass type
(mag) Time Alt. Az. Time Alt. Az. Time Alt. Az.
19 Jan 4.7 06:04:40 10° NNE 06:08:23 36° E 06:12:02 10° SSE visible
19 Jan 4.2 18:18:01 10° S 18:21:41 41° W 18:25:27 10° NNW visible
20 Jan 5.2 05:56:08 10° NE 05:59:35 28° E 06:03:00 10° SSE visible
20 Jan 3.6 18:09:06 10° S 18:12:55 54° W 18:16:49 10° NNW visible
21 Jan 5.7 05:47:39 10° NE 05:50:47 22° E 05:53:52 10° SSE visible
21 Jan 3.1 18:00:15 10° S 18:04:08 72° W 18:08:07 10° NNW visible
22 Jan 6.0 05:39:19 10° NE 05:41:58 17° E 05:44:35 10° SE visible
22 Jan 2.8 17:51:28 10° SSE 17:55:23 86° E 17:59:23 10° N visible
23 Jan 6.2 05:31:11 10° ENE 05:33:08 13° E 05:35:04 10° ESE visible
23 Jan 2.8 17:42:45 10° SSE 17:46:38 66° ENE 17:50:36 10° N visible
24 Jan 6.7 05:24:02 10° E 05:24:18 10° E 05:24:34 10° E visible
24 Jan 3.0 17:34:06 10° SSE 17:37:54 50° ENE 17:41:47 10° N visible
25 Jan 6.3 19:02:10 10° WSW 19:03:46 12° W 19:05:24 10° WNW visible
26 Jan 6.0 18:52:31 10° SW 18:54:56 16° W 18:57:24 10° NW visible
27 Jan 5.7 18:43:10 10° SW 18:46:07 20° W 18:49:07 10° NW visible
28 Jan 3.5 06:20:04 10° NNE 06:23:58 60° E 06:27:48 10° S visible
28 Jan 5.3 18:34:00 10° SSW 18:37:18 25° W 18:40:41 10° NW visible
